When you browse on this site, cookies collect data to enhance your experience and personalize the content and advertising you see.
Visit our Privacy Policy to learn more. By continuing to use the site, you agree to this use of cookies and data.
  • In United Kingdom
  • List of Countries
  • For 7 days
  • Water Temperature
  • Weather Map
  • Weather Widgets
  • user-avatar
    Login

    Hourly Weather Kurytyba

    Today, 21 January, Tuesday

    Time Temperature Precipitation Wind Pressure Humidity
    00:00 +18°C° 0 mm 2 mps 680 mmHg 91%
    01:00 +18°C° 0 mm 2 mps 680 mmHg 90%
    02:00 +19°C° 0 mm 1 mps 679 mmHg 89%
    03:00 +19°C° 0 mm 1 mps 679 mmHg 87%
    04:00 +19°C° 0 mm 1 mps 679 mmHg 88%
    05:00 +18°C° 0 mm 1 mps 679 mmHg 88%
    06:00 +18°C° 0 mm 1 mps 679 mmHg 89%
    07:00 +20°C° 0 mm 1 mps 680 mmHg 80%
    08:00 +21°C° 0 mm 1 mps 680 mmHg 71%
    09:00 +23°C° 0 mm 1 mps 681 mmHg 62%
    10:00 +25°C° 0 mm 1 mps 681 mmHg 54%
    11:00 +27°C° 0 mm 1 mps 681 mmHg 47%
    12:00 +29°C° 0 mm 2 mps 681 mmHg 39%
    13:00 +29°C° 0 mm 2 mps 680 mmHg 40%
    14:00 +29°C° 0 mm 2 mps 680 mmHg 42%
    15:00 +29°C° 0 mm 3 mps 679 mmHg 44%
    16:00 +27°C° 0 mm 3 mps 679 mmHg 53%
    17:00 +25°C° 0 mm 3 mps 678 mmHg 61%
    18:00 +22°C° 0 mm 3 mps 678 mmHg 70%
    19:00 +21°C° 0 mm 3 mps 678 mmHg 77%
    20:00 +19°C° 0 mm 3 mps 678 mmHg 83%
    21:00 +17°C° 0 mm 2 mps 678 mmHg 89%
    22:00 +17°C° 0 mm 2 mps 679 mmHg 88%
    23:00 +17°C° 0 mm 2 mps 679 mmHg 87%

    Tomorrow, 22 January, Wednesday

    Time Temperature Precipitation Wind Pressure Humidity
    00:00 +16°C° 0 mm 2 mps 679 mmHg 87%
    01:00 +16°C° 0 mm 2 mps 679 mmHg 87%
    02:00 +16°C° 0 mm 1 mps 678 mmHg 87%
    03:00 +15°C° 0 mm 1 mps 678 mmHg 88%
    04:00 +15°C° 0 mm 1 mps 678 mmHg 88%
    05:00 +15°C° 0 mm 1 mps 678 mmHg 88%
    06:00 +15°C° 0 mm 1 mps 678 mmHg 88%
    07:00 +18°C° 0 mm 1 mps 679 mmHg 79%
    08:00 +19°C° 0 mm 1 mps 679 mmHg 69%
    09:00 +20°C° 0 mm 2 mps 680 mmHg 60%
    10:00 +21°C° 0 mm 2 mps 680 mmHg 55%
    11:00 +24°C° 0 mm 2 mps 680 mmHg 49%
    12:00 +25°C° 0 mm 2 mps 681 mmHg 44%
    13:00 +25°C° 0 mm 2 mps 680 mmHg 44%
    14:00 +26°C° 0 mm 2 mps 680 mmHg 45%
    15:00 +26°C° 0 mm 2 mps 680 mmHg 45%
    16:00 +25°C° 0 mm 2 mps 679 mmHg 52%
    17:00 +24°C° 0 mm 3 mps 679 mmHg 60%
    18:00 +21°C° 0 mm 3 mps 679 mmHg 67%
    19:00 +20°C° 0 mm 3 mps 679 mmHg 74%
    20:00 +19°C° 0 mm 3 mps 679 mmHg 80%
    21:00 +18°C° 0 mm 3 mps 679 mmHg 87%
    22:00 +18°C° 0 mm 2 mps 679 mmHg 88%
    23:00 +17°C° 0 mm 2 mps 679 mmHg 90%

    Day after tomorrow, 23 January, Thursday

    Time Temperature Precipitation Wind Pressure Humidity
    00:00 +17°C° 0 mm 2 mps 679 mmHg 91%
    01:00 +17°C° 0 mm 2 mps 678 mmHg 92%
    02:00 +17°C° 0 mm 2 mps 678 mmHg 92%
    03:00 +17°C° 0 mm 2 mps 678 mmHg 93%
    04:00 +17°C° 0.1 mm 2 mps 678 mmHg 93%
    05:00 +17°C° 0.1 mm 2 mps 678 mmHg 93%
    06:00 +17°C° 0.1 mm 2 mps 679 mmHg 93%
    07:00 +18°C° 0.1 mm 2 mps 679 mmHg 87%
    08:00 +19°C° 0.1 mm 2 mps 680 mmHg 82%
    09:00 +19°C° 0.1 mm 2 mps 680 mmHg 77%
    10:00 +21°C° 0 mm 3 mps 680 mmHg 66%
    11:00 +24°C° 0 mm 3 mps 681 mmHg 55%
    12:00 +26°C° 0 mm 3 mps 681 mmHg 45%
    13:00 +26°C° 0 mm 3 mps 680 mmHg 47%
    14:00 +26°C° 0 mm 3 mps 680 mmHg 49%
    15:00 +26°C° 0 mm 4 mps 679 mmHg 51%
    16:00 +23°C° 0 mm 4 mps 679 mmHg 56%
    17:00 +22°C° 0 mm 4 mps 679 mmHg 61%
    18:00 +21°C° 0 mm 3 mps 679 mmHg 67%
    19:00 +19°C° 0 mm 3 mps 679 mmHg 74%
    20:00 +18°C° 0 mm 3 mps 679 mmHg 81%
    21:00 +17°C° 0 mm 2 mps 679 mmHg 89%
    22:00 +17°C° 0.1 mm 2 mps 679 mmHg 89%
    23:00 +17°C° 0.1 mm 2 mps 679 mmHg 88%

    24 January, Friday

    Time Temperature Precipitation Wind Pressure Humidity
    00:00 +17°C° 0.1 mm 2 mps 679 mmHg 88%
    01:00 +17°C° 0.1 mm 2 mps 679 mmHg 89%
    02:00 +16°C° 0.1 mm 2 mps 679 mmHg 91%
    03:00 +16°C° 0.1 mm 2 mps 678 mmHg 92%
    04:00 +16°C° 0 mm 2 mps 678 mmHg 92%
    05:00 +15°C° 0 mm 2 mps 678 mmHg 93%
    06:00 +15°C° 0 mm 2 mps 678 mmHg 94%
    07:00 +16°C° 0 mm 2 mps 679 mmHg 86%
    08:00 +18°C° 0 mm 2 mps 679 mmHg 78%
    09:00 +19°C° 0 mm 2 mps 680 mmHg 70%
    10:00 +21°C° 0 mm 2 mps 680 mmHg 61%
    11:00 +24°C° 0 mm 2 mps 680 mmHg 52%
    12:00 +26°C° 0 mm 2 mps 680 mmHg 43%
    13:00 +26°C° 0 mm 2 mps 680 mmHg 44%
    14:00 +27°C° 0 mm 2 mps 679 mmHg 44%
    15:00 +27°C° 0 mm 3 mps 679 mmHg 44%
    16:00 +25°C° 0.1 mm 3 mps 678 mmHg 52%
    17:00 +24°C° 0.1 mm 3 mps 678 mmHg 59%
    18:00 +23°C° 0.1 mm 2 mps 678 mmHg 66%
    19:00 +20°C° 0 mm 2 mps 678 mmHg 74%
    20:00 +19°C° 0 mm 2 mps 678 mmHg 82%
    21:00 +17°C° 0 mm 2 mps 678 mmHg 90%
    22:00 +17°C° 0 mm 2 mps 678 mmHg 91%
    23:00 +16°C° 0 mm 1 mps 678 mmHg 91%

    25 January, Saturday

    Time Temperature Precipitation Wind Pressure Humidity
    00:00 +16°C° 0 mm 1 mps 679 mmHg 92%
    01:00 +16°C° 0 mm 1 mps 678 mmHg 93%
    02:00 +14°C° 0 mm 0 mps 678 mmHg 93%
    03:00 +14°C° 0 mm 0 mps 677 mmHg 94%
    04:00 +14°C° 0 mm 0 mps 678 mmHg 94%
    05:00 +14°C° 0 mm 0 mps 678 mmHg 94%
    06:00 +14°C° 0 mm 0 mps 678 mmHg 94%
    07:00 +16°C° 0 mm 0 mps 679 mmHg 83%
    08:00 +19°C° 0 mm 0 mps 680 mmHg 72%
    09:00 +23°C° 0 mm 1 mps 681 mmHg 61%
    10:00 +25°C° 0 mm 1 mps 681 mmHg 52%
    11:00 +27°C° 0 mm 2 mps 680 mmHg 43%
    12:00 +29°C° 0 mm 2 mps 680 mmHg 35%
    13:00 +29°C° 0 mm 2 mps 680 mmHg 33%
    14:00 +30°C° 0 mm 2 mps 679 mmHg 31%
    15:00 +30°C° 0 mm 2 mps 679 mmHg 30%
    16:00 +29°C° 0 mm 2 mps 678 mmHg 35%
    17:00 +29°C° 0 mm 1 mps 678 mmHg 41%
    18:00 +28°C° 0 mm 1 mps 678 mmHg 47%
    19:00 +25°C° 0 mm 1 mps 678 mmHg 56%
    20:00 +23°C° 0 mm 1 mps 678 mmHg 65%
    21:00 +21°C° 0 mm 1 mps 678 mmHg 74%
    22:00 +20°C° 0 mm 1 mps 678 mmHg 77%
    23:00 +20°C° 0 mm 1 mps 679 mmHg 80%

    26 January, Sunday

    Time Temperature Precipitation Wind Pressure Humidity
    00:00 +19°C° 0 mm 1 mps 679 mmHg 84%
    01:00 +19°C° 0 mm 1 mps 678 mmHg 85%
    02:00 +16°C° 0 mm 0 mps 678 mmHg 86%
    03:00 +16°C° 0 mm 0 mps 678 mmHg 87%
    04:00 +16°C° 0 mm 0 mps 678 mmHg 87%
    05:00 +16°C° 0 mm 0 mps 678 mmHg 87%
    06:00 +16°C° 0 mm 1 mps 678 mmHg 87%
    07:00 +20°C° 0 mm 1 mps 679 mmHg 76%
    08:00 +23°C° 0 mm 1 mps 679 mmHg 65%
    09:00 +25°C° 0 mm 1 mps 680 mmHg 54%
    10:00 +27°C° 0 mm 2 mps 680 mmHg 46%
    11:00 +29°C° 0 mm 2 mps 680 mmHg 38%
    12:00 +31°C° 0 mm 3 mps 680 mmHg 30%
    13:00 +31°C° 0 mm 3 mps 680 mmHg 29%
    14:00 +32°C° 0 mm 2 mps 679 mmHg 28%
    15:00 +32°C° 0 mm 2 mps 679 mmHg 26%
    16:00 +31°C° 0 mm 2 mps 678 mmHg 31%
    17:00 +30°C° 0 mm 1 mps 678 mmHg 36%
    18:00 +27°C° 0 mm 0 mps 678 mmHg 41%
    19:00 +27°C° 0 mm 1 mps 678 mmHg 50%
    20:00 +25°C° 0 mm 1 mps 678 mmHg 59%
    21:00 +22°C° 0 mm 1 mps 678 mmHg 69%
    22:00 +22°C° 0 mm 1 mps 678 mmHg 71%
    23:00 +22°C° 0 mm 1 mps 679 mmHg 73%
    Show more